#timestamp,LO_Frequency,Hit,StdDev 
1560009615.6,286046997.7,P
1560009635.4,286046997.8,N
1560009655.3,286046997.8,N
1560009675.1,286046995.2,Y
1560009695.9,286046996.6,P
1560009715.7,286046999.5,N
1560009735.5,286046998.6,N
1560009755.4,286047001.2,N
1560009775.2,286047000.0,N
1560009795.0,286047000.5,N
1560009796.0,286047000.5,N
1560009815.8,286047000.5,N
1560009835.6,286047001.8,N
1560009855.5,286047001.9,N
1560009875.3,286047000.4,N
1560009895.1,286047001.0,N
1560009915.9,286047002.1,N
1560009935.7,286047001.8,N
1560009955.5,286047000.1,N
1560009975.4,286047000.2,N
1560009995.2,286047000.9,N
1560010015.1,286046999.1,N
1560010016.0,286046999.1,N
1560010035.8,286046997.0,N
1560010055.6,286046999.4,N
1560010075.5,286046997.1,N
1560010095.3,286046996.7,N
1560010115.1,286046997.7,N
1560010135.9,286046996.4,N
1560010155.7,286046994.2,Y
1560010175.6,286046994.0,P
1560010195.4,286046994.5,N
1560010215.2,286046994.7,N
1560010235.1,286046993.3,N
1560010236.0,286046993.3,Y
1560010255.8,286046997.0,P
1560010275.7,286046997.8,N
1560010295.5,286046995.8,P
1560010315.3,286046995.6,Y
1560010335.2,286046998.1,P
1560010355.0,286047001.2,N
1560010355.9,286047001.2,N
1560010375.8,286047000.5,N
1560010395.6,286047001.2,N
1560010415.4,286047001.0,N
1560010435.3,286047000.6,N
1560010455.1,286047000.5,N
1560010456.0,286047000.5,N
1560010475.8,286046998.6,N
1560010495.7,286047000.0,N
1560010515.5,286047000.2,N
1560010535.3,286047002.4,N
1560010555.2,286047002.8,N
1560010575.0,286047002.7,N
1560010575.9,286047002.7,N
1560010595.8,286047002.1,N
1560010615.6,286047002.2,N
1560010635.4,286047001.8,N
1560010655.3,286047001.8,N
1560010675.1,286047004.3,N
1560010695.9,286047003.0,N
1560010715.7,286047003.4,N
1560010735.5,286047005.4,Y
1560010755.4,286047001.9,P
1560010775.2,286047003.7,P
1560010795.0,286047001.5,N
1560010795.9,286047001.5,N
1560010815.8,286047003.6,Y
1560010835.6,286047002.6,P
1560010855.5,286046999.9,N
1560010875.3,286047000.7,N
1560010895.1,286047000.9,N
1560010915.9,286047000.3,N
1560010935.7,286047001.5,N
1560010955.6,286047001.4,N
1560010975.4,286047003.4,Y
1560010995.2,286047001.8,P
1560011015.1,286047001.8,P
1560011016.0,286047001.8,P
1560011035.8,286047002.0,Y
1560011055.6,286046999.9,P
1560011075.5,286047000.2,N
1560011095.3,286047000.5,N
1560011115.2,286047011.9,Y
1560011135.0,286047000.5,P
1560011135.9,286047000.5,P
1560011155.7,286047000.6,P
1560011175.6,286047000.7,Y
1560011195.4,286046998.2,P
1560011215.3,286046998.7,N
1560011235.1,286047000.2,N
1560011236.0,286047000.2,N
1560011255.8,286047000.9,N
1560011275.7,286047000.7,N
1560011295.5,286047000.0,N
1560011315.3,286047000.5,N
1560011335.2,286047000.0,N
1560011355.0,286047001.2,N
1560011355.9,286047001.2,N
1560011375.8,286046998.7,N
1560011395.6,286046999.3,N
1560011415.4,286046999.1,N
1560011435.3,286046998.3,N
1560011455.1,286046998.5,N
1560011475.9,286046996.6,Y
1560011495.7,286046997.2,P
1560011545.6,286047000.6,E
1560011555.5,286047000.1,N
1560011575.3,286047000.5,P
1560011595.2,286047000.5,N
1560011615.9,286047000.8,Y
1560011635.7,286046998.2,P
1560011655.6,286046998.5,N
1560011675.4,286047000.0,N
1560011695.2,286046998.2,N
1560011715.1,286046999.4,N
1560011716.0,286046999.4,N
1560011735.8,286046998.2,N
1560011755.7,286047001.1,N
1560011775.5,286046998.1,N
1560011795.3,286046998.4,N
1560011815.2,286046998.7,N
1560011835.0,286046998.1,N
1560011835.9,286046998.1,N
1560011855.8,286046998.8,N
1560011875.6,286046998.2,N
1560011895.4,286046999.9,N
1560011915.3,286046998.5,N
1560011935.1,286046998.2,N
1560011955.8,286047000.7,N
1560011975.7,286047000.7,N
1560011995.5,286047001.1,N
1560012015.4,286046998.6,N
1560012035.2,286047000.7,N
1560012055.0,286046998.5,N
1560012055.9,286046998.5,N
1560012075.8,286047001.1,N
1560012095.6,286047001.0,N
1560012115.4,286047000.0,N
1560012135.3,286047000.8,N
1560012155.1,286047001.1,N
1560012175.9,286047000.2,N
1560012195.7,286046999.8,N
1560012215.5,286047000.8,N
1560012235.4,286047000.3,N
1560012255.2,286047000.0,N
1560012275.0,286046999.7,N
1560012275.9,286046999.7,N
1560012295.8,286047002.7,N
1560012315.6,286047002.1,N
1560012335.5,286047002.6,N
1560012355.3,286047002.1,N
1560012375.1,286047002.7,N
1560012395.9,286047000.4,N
1560012415.7,286047000.0,N
1560012435.5,286047002.3,N
1560012455.4,286047000.0,N
1560012475.2,286047000.0,N
1560012495.1,286047002.4,N
1560012496.0,286047002.4,N
1560012515.8,286047000.3,N
1560012535.6,286046998.2,N
1560012555.5,286046998.3,N
1560012575.3,286046998.4,N
1560012595.1,286047000.7,N
1560012615.9,286046998.3,N
1560012635.7,286046998.8,N
1560012655.6,286046999.4,N
1560012675.4,286046999.6,N
1560012695.2,286046998.8,N
1560012715.1,286046998.9,N
1560012716.0,286046998.9,N
1560012735.8,286047001.2,N
1560012755.6,286047001.0,N
1560012775.5,286046998.2,N
1560012795.3,286046998.4,N
1560012815.2,286047001.2,N
1560012835.9,286046998.3,N
1560012855.7,286047000.3,N
1560012875.6,286046998.4,N
1560012895.4,286046998.4,N
1560012915.2,286047000.8,N
1560012935.1,286046999.2,N
1560012936.0,286046999.2,N
1560012955.8,286046997.2,N
1560012975.7,286046997.7,N
1560012995.5,286046996.7,N
1560013015.3,286046998.3,N
1560013035.2,286047000.8,N
1560013055.9,286046998.2,N
1560013075.7,286047001.2,N
1560013095.6,286046998.3,N
1560013115.4,286046999.3,N
1560013135.2,286046998.6,N
1560013155.1,286046998.4,N
1560013156.0,286046998.4,N
1560013175.8,286047001.1,N
1560013195.7,286046998.3,N
